カタログに戻る

KUIPER-00179

運用中通信LEO
NORAD 67136·PAYLOAD·🇺🇸 United States

打ち上げ Dec 15, 2025 から Cape Canaveral Space Force Station

Loading…

次のパス (今後24時間)

TLE

最新Source: CelesTrak SupGP

元期: Sep 14, 2026, 19:50 UTC

1 67136C 25301D   26257.82650463  .00000595  00000+0  77938-4 0  2573
2 67136  51.8977 309.2158 0000467  84.1648 183.6417 14.79916640    16

AllMySatでKUIPER-00179をリアルタイム追跡

Download on the App Store